FAISAT

Satellite information

Favourite Embed

Satellite Type and Status

PAYLOADIN ORBIT

Key statistics

Satellite FAISAT at a glance.

Uptime

11062

Days in orbit

Revolutions

≈ 13.7

Per day

Orbit

LEO

Low Earth Orbit

Inclination

82.9

Latest

Satellite identification and parameters

Extended collection of information and parameters for FAISAT.

Object identification

Identified? True

Debris? False

Object name: FAISAT

International designator: 1995-002C

Object number (NORAD): 23465

Object ID (CCSDS): 23465

Country: UNITED STATES OF AMERICA (US)

Current information (Y/N): Y

RCS size: MEDIUM

Orbital parameters

Period: 104.956 minutes

Inclination: 82.9257 deg

SMA: 7370.531 km

Apoapsis: 1019.48 km

Periapsis: 965.311 km

RAAN: 322.6617 deg

Eccentricy: 0.0036747

Argument of periapsis: 211.0507 deg

Mean anomaly: 159.8974 deg

Mean motion: 13.72001655 rev/day

Mean motion (dot): 0.00000055 rev/day2

B* drag term: 0.000044326 1/REarth

Two-line elements (TLE)

Creation date: May 8, 2025, 3:01 a.m.

Reference frame: TEME

Reference center: EARTH

Epoch: May 7, 2025, 6:45 p.m. UTC

TLE line 0: 0 FAISAT

TLE line 1: 1 23465U 95002C 25127.78126751 .00000055 00000-0 44326-4 0 9993

TLE line 2: 2 23465 82.9257 322.6617 0036747 211.0507 159.8974 13.72001655516268

Live tracking on map

Real-time ground track for satellite FAISAT.

In-orbit conjunctions

A list of the most updated potential collisions computed for object FAISAT.

Target Orbit TCA Probability of collision Miss distance Type
FENGYUN 1C DEB SSO 2024-11-21 21:41:27 0.0002484507 281.0 (m) DEBRIS
FENGYUN 1C DEB SSO 2024-09-05 23:09:07 0.0001070237 220.0 (m) DEBRIS
SCOUT X-4 DEB LEO 2024-06-01 22:55:54 0.0001806345 209.0 (m) DEBRIS

Associated space launch

Civilian navigation satellite equivalent to the purely military Parus

FAISAT was lifted into orbit during the mission ‘Kosmos-3M | Tsikada 20’, on board a Kosmos-3M space rocket.

The launch took place on Jan. 24, 1995, 3:54 a.m. from 132/1 (132L).

For more information about the launch, click the button.

Launch to space Kosmos-3M | Tsikada 20
Kosmos-3M | Tsikada 20

Agency: N/A

Status: Launch Successful

Launch date: Jan. 24, 1995, 3:54 a.m. UTC

Rocket: Kosmos-3M

Launch pad: 132/1 (132L)

Location: Plesetsk Cosmodrome, Russian Federation

...

Latest news about this satellite

There are no fresh news available about this satellite. Check back as we update our databases every day.


Newsletter sign-up

Weekly statistics, charts and insights to help you stay on top of the space industry.